Regional Weather Roundup
Issued by NWS Wakefield, VA

Home | Current Version | Previous Version | Graphics & Text | Print | Product List | Glossary On
Versions: 1 2 3 4 5 6 7 8 9 10 11 12 13 14 15 16 17 18 19 20 21 22 23 24 25 26 27
000
ASUS41 KAKQ 250015
RWRAKQ

REGIONAL WEATHER ROUNDUP
NATIONAL WEATHER SERVICE WAKEFIELD VA
800 PM EDT SUN SEP 24 2017

Note: "fair" indicates few or no clouds below 12,000 feet with no
significant weather and/or obstructions to visibility. * = Denotes
station may not report precipitation (e.g., rain,snow,etc.),
thunder or fog.

VAZ042-051-052>054-056-250100-
NORTHERN VIRGINIA

CITY           SKY/WX    TMP DP  RH WIND       PRES   REMARKS
WASH NATIONAL  PTCLDY    82  66  58 S5        30.05R
DULLES         PTCLDY    78  66  66 SE6       30.05R
FORT BELVOIR   CLEAR     73  67  82 CALM      30.04R
QUANTICO       CLEAR     76  72  87 NW7       30.05R
FREDERICKSBRG* CLEAR     74  69  83 CALM      30.04R
STAFFORD*      CLEAR     69  69 100 CALM      30.09R
WARRENTON      CLEAR     72  63  74 CALM      30.05S
CULPEPER*      CLEAR     74  68  80 CALM      30.06R
MANASSAS*      CLEAR     74  68  81 CALM      30.05R
LEESBURG*      CLEAR     79  70  73 CALM      30.07R
WINCHESTER     CLEAR     72  64  78 CALM      30.08R
FRONT ROYAL*   CLEAR     72  64  78 S3        30.07R
LURAY*         CLEAR     72  63  73 NE3       30.08S
$$

VAZ048-049-060>072-079>083-250100-
CENTRAL AND SOUTH CENTRAL VIRGINIA

CITY           SKY/WX    TMP DP  RH WIND       PRES   REMARKS
RICHMOND       PTCLDY    77  61  57 E5        30.03S
CHESTERFIELD*  NOT AVBL
PETERSBURG*    CLEAR     66  63  89 CALM      30.04R
HANOVER        CLEAR     71  65  81 NE3       30.05R
TAPPAHANNOCK*  CLEAR     72  54  53 CALM      30.04S
QUINTON*       FAIR      71  68  93 CALM      30.02S
CHARLOTTSVILLE CLEAR     79  65  62 CALM      30.06R
GORDONSVILLE*  CLEAR     72  68  85 CALM      30.05S
ORANGE*        CLEAR     70  64  83 CALM      30.06R
LOUISA*        CLEAR     68  64  88 CALM      30.05S
BUMPASS*       FAIR      71  67  86 CALM      30.05R
FARMVILLE*     PTCLDY    77  66  68 N3        30.03R
CREWE*         FAIR      69  69 100 CALM      30.03R
FORT PICKETT*  FAIR      71  68  90 CALM      30.04R
CHASE CITY*    FAIR      73  66  76 CALM      30.04R
CLARKSVILLE*   FAIR      73  63  68 CALM      30.02S
SOUTH HILL*    CLOUDY    70  65  83 CALM      30.09R
LAWRENCEVILLE* FAIR      72  64  76 CALM      30.03R
EMPORIA*       CLEAR     72  61  68 CALM      30.04R
$$

VAZ088>098-250100-
SOUTHEAST VIRGINIA

CITY           SKY/WX    TMP DP  RH WIND       PRES   REMARKS
NORFOLK        PTCLDY    73  67  81 NE7       30.01R
VIRGINIA BEACH PTCLDY    70  64  81 NE5       30.00R
NORFOLK NAVAL  MOCLDY    75  67  76 NE6       30.03R
WEST POINT*    CLEAR     70  64  83 CALM      30.04R
SALUDA*        FAIR      70  66  87 CALM      30.03R
NEWPORT NEWS   CLEAR     70  66  87 E3        30.02S
LANGLEY AFB    NOT AVBL
FORT EUSTIS    PTCLDY    75  64  67 CALM      30.00R
WILLIAMSBURG*  PTCLDY    73  70  88 CALM      30.03R
HR EXEC AP*    FAIR      65  63  93 N3        30.02R
FRANKLIN*      CLEAR     67  62  85 CALM      30.02R
US460-WAKEFLD  CLEAR     69  66  90 CALM      30.02R
$$

VAZ020-022-025-037-045-250100-
WEST CENTRAL AND SOUTHWEST VIRGINIA

CITY           SKY/WX    TMP DP  RH WIND       PRES   REMARKS
STAUNTON*      CLEAR     72  62  71 CALM      30.12R
WAYNESBORO*    PTCLDY    76  64  64 E5        30.11R
HOT SPRINGS VA CLEAR     70  53  55 E5        30.23S
LYNCHBURG      PTCLDY    78  61  55 NE7       30.07R
DANVILLE       CLOUDY    71  67  87 CALM      30.04R
SOUTH BOSTON*  FAIR      73  66  80 CALM      30.03R
MARTINSVILLE   PTCLDY    69  66  90 CALM      30.08S
ROANOKE        PTCLDY    80  60  50 E3        30.09S
BLACKSBURG     CLEAR     71  60  70 CALM      30.15S
DUBLIN*        CLEAR     70  61  74 CALM      30.14S
MARION*        PTCLDY    70  55  59 CALM      30.18R
HILLSVILLE*    PTCLDY    70  53  53 CALM      30.15S
RICHLANDS*     FAIR      74  52  46 E5        30.16R
WISE*          CLOUDY    73  55  53 CALM      30.15F
ABINGDON*      PTCLDY    76  53  43 E8        30.11S
$$

MDZ021>025-VAZ099-100-250100-
SOUTHERN MARYLAND AND THE DELMARVA PENINSULA

CITY           SKY/WX    TMP DP  RH WIND       PRES   REMARKS
PATUXENT RIVER CLEAR     71  67  87 W3        30.03S
BAY BRIDGE APT CLEAR     75  68  78 CALM      30.03S
LEONARDTOWN    CLEAR     72  66  83 CALM      30.06R
DOVER          NOT AVBL
GEORGETOWN     CLEAR     72  65  78 CALM      30.05R
EASTON         CLEAR     77  68  73 CALM      30.08R
CAMBRIDGE      CLEAR     72  68  88 CALM      30.03S FOG
SALISBURY      PTCLDY    72  67  84 CALM      30.03S
OCEAN CITY     CLEAR     67  67 100 N3        30.04S
WALLOPS ISLAND CLEAR     72  67  84 N3        30.03S
ACCOMACK*      CLEAR     67  66  94 CALM      30.02S
$$

NCZ012>017-030>032-250100-
NORTH CENTRAL AND EASTERN NORTH CAROLINA

CITY           SKY/WX    TMP DP  RH WIND       PRES   REMARKS
ROANOKE RAPIDS FAIR      68  63  83 CALM      30.02R
RALEIGH        MOCLDY    75  61  61 E3        30.02R
ELIZABETH CITY PTCLDY    73  69  87 NE7       30.01R
AHOSKIE*       PTCLDY    71  60  66 N3        30.01S
EDENTON*       PTCLDY    74  64  69 CALM      30.01R
CURRITUCK*     PTCLDY    73  66  79 NE8       30.01S
KILL DEVIL HLS PTCLDY    70  65  84 CALM      29.99R
MANTEO         MOCLDY    72  68  88 E12       30.00R
CAPE HATTERAS  MOCLDY    73  70  90 NE8G18    29.96R
TARBORO*       NOT AVBL
GOLDSBORO      CLOUDY    77  67  72 N6        29.96S
WASHINGTON     PTCLDY    73  66  79 NE3       29.99S
GREENVILLE     PTCLDY    77  64  65 NE5       30.01R
NEW BERN       CLOUDY    75  65  70 NE7       29.98R
WILMINGTON     CLOUDY    77  70  79 N3        29.95R
$$

VAZ048-250100-
ELSEWHERE

CITY           SKY/WX    TMP DP  RH WIND       PRES   REMARKS
HARRISBURG PA  CLEAR     76  73  91 CALM      30.04R
BALTIMORE      PTCLDY    74  67  78 SW3       30.04R
ANNAPOLIS      CLEAR     79  74  84 NW3       30.03R
ANDREWS AFB    CLEAR     73  68  82 CALM      30.04R
PHILADELPHIA   PTCLDY    81  66  60 S6        30.05R
HENDERSON NC   MOCLDY    74  58  56 CALM      30.03R
GREENSBORO     CLOUDY    77  63  61 N3        30.04S
ROCKY MOUNT    PTCLDY    74  61  63 NE6       30.00R
$$

VAZ100-250100-
MARINE

STATION/POSITION TIME  TEMP    WIND        PRES    WAVE   SWELL
                       AIR SEA DIR/SP/G            HT/PER HT/PER
                 (UTC) (F)     (DEG/KT/KT) (MB)    (FT/S) (FT/S)
BRANDYWINE LGT   2342          180/  5/  5   N/A
CAPE MAY NJ      2342          120/  1/  1   N/A
LEWES DE         2342          150/  1/  1   N/A
15NM E FENWICK I 2350   72 74     CALM     1017.7R   3/11
OCEAN-CITY-INLET 2342           80/  1/  2   N/A
WACHAPREAGUE VA  2342          330/  2/  3   N/A
THOMAS POINT MD  0000   82 76  230/  3/  3   N/A
GOOSES REEF MD   0000   80 77   20/  4/  6 1017.6    0
COVE POINT MD    2342          350/  3/  4   N/A
SOLOMONS ISLAND  2342          280/  1/  2   N/A
BISHOPS HEAD MD  2342           70/  5/  7   N/A
PINEY POINT MD   2342           90/  4/  4   N/A
POTOMAC MD       0000   77 77   10/  2/  2 1016.2    0
CAMBRIDGE MD     2330   77 79              1018.0R
LEWISETTA VA     2342          200/  1/  2   N/A
RAPPAHANNOCK LGT 2342           50/  5/  6   N/A
STINGRAY PT      0000   78 77   60/  6/  8 1017.1    0
YORK RVR RNG VA  2342           40/  8/ 10   N/A
YORKTOWN VA      2342           50/  4/  5   N/A
JAMESTOWN VA     0000      79   60/  2/  2   N/A     0
DOMINION TERM VA 2342           30/  2/  4   N/A
KIPTOPEKE VA     2342           30/  3/  4   N/A
CHES BAY BRIDGE  2342           60/ 10/ 12   N/A
CAPE HENRY VA    2342           30/  9/ 11   N/A
WILLOUBY STN VA  2342           50/  8/  9   N/A
S CRANEY ISL VA  2342           50/  7/  9   N/A
CAPE HENRY BUOY  2330      75                N/A     4/12   2/12
1ST LANDING BUOY 0000   76 76              1016.4    1/ 4
64NM E OF VA BCH 2350   71 71   40/ 12/ 14 1016.1R   8/11   8/11
DUCK PIER NC     2342           40/ 14/ 16   N/A
44100 DUCK FRF   2305      75                N/A     5/13   3/13
44056 DUCK FRF   0000      76                N/A     5/15   3/15
OREGON INLET NC  2342           30/  9/ 14   N/A
HATTERAS NC      2342           50/ 11/ 17   N/A
DIAMOND SHLS NC  2350   75 81   30/ 21/ 25 1013.3S  10/16  10/16
CAPE LOOKOUT NC  0000   76      20/ 14/ 16 1013.7S
$$




USA.gov is the U.S. government's official web portal to all federal, state and local government web resources and services.